Regional Weather Roundup
Issued by NWS

Home | Current Version | Previous Version | Text Only | Print | Product List | Glossary On
Versions: 1 2 3 4 5 6 7 8 9 10 11 12 13 14 15 16 17 18 19 20 21 22 23 24 25 26 27 28 29 30 31 32 33 34 35 36 37 38 39 40 41 42 43 44 45 46 47 48 49 50
000
ASUS44 KLIX 311910
RWRLA
LOUISIANA WEATHER ROUNDUP
NATIONAL WEATHER SERVICE NEW ORLEANS LA
200 PM CDT THU JUL 31 2014

NOTE: "FAIR" INDICATES FEW OR NO CLOUDS BELOW 12,000 FEET WITH NO
      SIGNIFICANT WEATHER AND/OR OBSTRUCTIONS TO VISIBILITY.
      SKY/WX - SKY CONDITION AND SIGNIFICANT WEATHER.
      TMP - AIR TEMPERATURE.    DP   - DEWPOINT TEMPERATURE.
      RH  - RELATIVE HUMIDITY.  PRES - PRESSURE.
      HX  - HEAT INDEX.         WCI  - WIND CHILL INDEX.

*  THESE STATIONS ARE NOT NWS OR FAA STATIONS AND ARE NOT UNDER
   NWS QUALITY CONTROL.

LAZ040-048-061>063-065-066-069-312000-
SOUTHEAST LOUISIANA

CITY           SKY/WX    TMP DP  RH WIND       PRES   REMARKS
N.O. AUDUBON     N/A     90  68  48 MISG        N/A
N.O. INTL ARPT PTSUNNY   86  64  47 NE10      30.03F
N.O. LAKEFRONT PTSUNNY   87  61  41 N7        30.04F
N.O. DOWNTOWN* FAIR      88  63  42 N6        30.03F
SLIDELL        MOSUNNY   86  60  41 NE6       30.03F
BATON ROUGE    MOSUNNY   87  66  49 E7        30.02F
BOOTHVILLE     MOSUNNY   84  68  58 E7        30.04F
BELLE CHASSE   PTSUNNY   87  66  49 SE7       30.03S
BOGALUSA*      FAIR      84  59  42 CALM      30.05F
GALLIANO*      NOT AVBL
NEW ROADS*     FAIR      85  64  49 SE3       30.03S
GONZALES*      FAIR      85  70  60 CALM      30.02F
HAMMOND*       MOSUNNY   88  61  40 CALM      30.05F
HOUMA*         PTSUNNY   90  66  45 E8        30.03F
PORT FOURCHON* CLEAR     86  66  51 SE10      30.05F

$$

LAZ041-044-053-054-312000-
SOUTHWEST LOUISIANA

CITY           SKY/WX    TMP DP  RH WIND       PRES   REMARKS
LAKE CHARLES   PTSUNNY   89  73  59 SE8       30.00F HX  97
LAFAYETTE      PTSUNNY   86  69  56 CALM      30.02F
PATTERSON      PTSUNNY   90  75  62 SE6       30.06F HX 100
SALT POINT       N/A     88  74  63 VRB3      30.01F HX  96
NEW IBERIA     PTSUNNY   90  69  50 E7        30.02F
CHENAULT AIRPK NOT AVBL

$$

LAZ027-028-312000-
CENTRAL LOUISIANA

CITY           SKY/WX    TMP DP  RH WIND       PRES   REMARKS
FORT POLK      CLOUDY    83  70  64 SE6       30.02F
ALEXANDRIA INT CLOUDY    82  66  58 SE3       30.01F
ALEXANDRIA     CLOUDY    82  69  64 CALM      30.04F

$$

LAZ001-002-312000-
NORTHWEST LOUISIANA

CITY           SKY/WX    TMP DP  RH WIND       PRES   REMARKS
SHREVEPORT     CLOUDY    74  69  85 SE3       30.01F
BARKSDALE AFB  LGT RAIN  74  69  84 SE7       30.01F
DTN SHREVEPORT CLOUDY    74  67  78 SE8       30.01F

$$

LAZ014-016-312000-
NORTHEAST LOUISIANA

CITY           SKY/WX    TMP DP  RH WIND       PRES   REMARKS
MONROE         CLOUDY    77  64  64 E3        30.06F
TALLULAH       CLOUDY    79  65  62 CALM      30.06S

$$




USA.gov is the U.S. government's official web portal to all federal, state and local government web resources and services.